Location: Caoba
(9.7667°N, 67.4833°W)
Time: 19:46:43
(UTC+00:00)

GOES 2 Rocket - Pass Details

Date: 12 December 2024
Orbit: 569 x 1662 km, 28.4° (Epoch: 14 January)

Event Time Altitude Azimuth Distance (km) Brightness Sun altitude
Exits shadow 08:26:36 20° 64° (ENE) 1,330 5.1 -30.7°
Drops below altitude 10° 08:28:26 10° 84° (E) 1,888 6.3 -30.3°
Sets 08:31:03 0° 96° (E) 2,859 7.6 -29.7°
